Location: Unspecified
(50.0000°N, 15.0000°E)
Time: 16:51:29
(UTC+01:00)

ISS - Visible Passes

Search period start: 03 March 2024 00:00
Search period end: 13 March 2024 00:00
Orbit: 414 x 422 km, 51.6° (Epoch: 03 March)

Date Brightness Start Highest point End Pass type
(mag) Time Alt. Az. Time Alt. Az. Time Alt. Az.
03 Mar -1.3 03:49:49 22° E 03:49:49 22° E 03:51:09 10° E visible
03 Mar -3.5 05:22:45 24° W 05:24:34 54° SSW 05:27:53 10° SE visible
04 Mar -3.8 04:36:46 72° S 04:36:46 72° S 04:40:00 10° ESE visible
05 Mar -1.3 03:50:50 20° ESE 03:50:50 20° ESE 03:52:00 10° ESE visible
05 Mar -2.6 05:23:46 20° WSW 05:25:09 27° SW 05:28:04 10° SSE visible
06 Mar -2.8 04:37:56 34° S 04:37:56 34° S 04:40:24 10° SE visible
07 Mar -0.9 03:52:11 12° SE 03:52:11 12° SE 03:52:32 10° SE visible
07 Mar -1.7 05:25:09 13° SW 05:25:26 13° SW 05:27:05 10° SSW visible
08 Mar -1.3 04:39:32 12° S 04:39:32 12° S 04:40:03 10° S visible
